NOAA 16 DEB, 41067

Orbit data source: Space-Track

NOAA 16 DEB, 41067 is space debris in SSO originally from a launch on Thu, 21 Sep 2000 UTC launched from the Air Force Western Test Range (AFWTR). Debris objects in space refer to the collection of defunct objects orbiting the Earth. Examples of debris include non-operational satellites, rocket bodies, and fragments generated from explosions, collisions, or faulty payload assembly.

Loading next visibility...
Identifier
41067, 2000-055AA
Orbit
SSO
Country
Flag of USUS
Related business
Manufacturer
Unknown
Mission
Spacecraft
Bus & Motor
Unknown
Mass
Unknown
Launch date (UTC)
2000-09-21 (25 years ago)
Launch vehicle
Unknown
Launch site
Air Force Western Test Range (AFWTR)
Object type
Payload
Rocket body
Debris
Shape & HBR
Unknown shape, 0.1 m
Radar Cross Section
Small (<0.1 m²)

Expand to show TLE details & history
Last TLE update: 7 hours ago

TLE from 7 hours ago
0 NOAA 16 DEB
1 41067U 00055AA  25296.01988065  .00001627  00000-0  82374-3 0  9992
2 41067  98.5478 333.7637 0003315 228.0635 132.0258 14.17429977511202
Epoch: 2025-10-23T00:28Z
TLE epoch observation values (Epoch: 2025-10-23T00:28:37.688Z)
Latitude
-0.00003°
Longitude
-65.07847°
Altitude
838.575 km
Speed
7.433 km/s
True Right ascension
22h 15m 03s
True Declination
0° 00' 00"
Sunlit
Object was in full shadow at epoch
Visualization orbit readout
Latitude
Unknown
Longitude
Unknown
Altitude
Unknown
Speed
Unknown
Apparent Right ascension
Unknown
Apparent Declination
Unknown
Sunlit
N/A
Visualization observer readout
Local Sidereal Time
02:58:24
Azimuth
Unknown
Elevation
Unknown
Doppler factor
Unknown
Orbital elements
Apogee altitude
833.602 km
Perigee altitude
828.822 km
Semi-major axis
7,209.349 km
Eccentricity
0.00033
Inclination
98.5478°
RAAN
333.7637°
Arg. of periapsis
228.0635°
True anomaly
132.05401°
Mean anomaly
132.0258°
Eccentric anomaly
132.03991°
Mean motion
3.54568 °/min
Orbital period
101.53 mins
BSTAR
0.00082374
Loading maneuver chart data...
Computing Atmospheric mass density...

Documentation

Showing up to 5 results
|